Dewpoint
15 16 17 15 12 12 14 16 15 16 15 16 14 16 18 18 17 17 15 13 12 11 11 10 9 9 9 9 8 9 10 9 9 9 7 7 6 7 8 7 7 7 8 9 10 11 10 10 11 13 14 14 14 15 15 15 16 17 17 17 17 16 16 15 14 13 13 14 16 16 16 18 17 19 19 19 19 19 22 20 21 22 22 22 21
14 13 12 12 10 11 11 12 12 13 12 13 12 13 13 13 13 12 10 12 9 9 9 11 8 7 7 7 8 8 8 10 8 6 6 6 5 12 10 6 7 7 8 7 9 12 10 10 11 11 12 14 14 14 14 14 14 14 14 15 14 15 15 15 13 12 10 10 12 12 13 16 15 18 18 18 18 20 19 19 21 21 21 22 22
13 12 11 10 10 11 12 12 12 12 11 11 11 11 12 11 11 9 8 8 9 7 7 7 7 7 5 6 7 7 7 6 5 5 5 5 4 4 7 5 6 7 7 8 8 9 10 10 10 11 15 12 12 12 13 13 13 12 13 12 12 12 13 14 14 12 11 10 11 12 12 14 15 15 17 19 19 20 19 19 19 21 22 21 22
12 11 11 11 11 12 12 12 12 11 10 10 10 12 11 11 11 8 7 6 6 7 7 6 5 5 4 5 5 5 4 5 4 4 4 4 3 4 4 5 6 7 8 9 9 9 10 10 10 10 10 11 11 11 11 11 11 11 11 12 12 12 12 13 14 13 12 11 12 12 15 14 15 16 18 18 17 18 18 19 19 19 19 21 20
11 11 11 11 12 12 12 11 10 9 10 10 11 11 11 10 10 8 5 6 6 5 5 5 4 5 3 4 4 4 5 4 3 3 3 3 3 4 5 6 7 9 10 10 13 11 11 10 10 10 10 10 11 10 10 11 11 11 11 11 11 11 12 13 13 13 12 11 12 13 14 15 16 16 16 15 16 16 16 16 17 17 18 19 21
12 11 11 11 11 11 11 11 10 10 11 11 11 11 11 11 10 7 4 5 5 5 3 4 5 4 4 5 4 4 4 3 3 2 2 2 2 4 7 9 10 11 11 11 11 11 10 10 10 10 10 10 9 10 10 11 11 11 12 12 12 12 12 13 14 13 13 13 13 13 13 14 13 14 15 15 16 15 15 17 17 18 17 17 18
12 11 11 12 12 12 12 12 11 12 11 11 12 12 11 10 8 8 5 4 4 3 4 3 4 4 3 4 3 3 2 2 2 1 1 1 3 6 10 12 12 12 11 11 11 11 11 10 10 10 9 9 10 10 10 10 13 12 12 11 11 11 11 11 11 11 12 13 13 13 13 12 12 12 14 16 16 17 16 16 16 17 18 18 19
12 12 12 12 12 12 12 13 12 12 12 12 12 12 12 10 7 5 6 4 4 3 3 4 3 3 3 3 2 2 1 1 0 0 -0 2 7 11 13 13 13 12 12 12 12 11 11 11 10 9 9 9 9 9 11 12 12 11 11 11 10 10 10 12 12 12 11 10 9 8 8 8 9 9 11 11 11 12 14 14 13 13 15 17 17
11 11 12 12 12 13 13 13 14 14 13 14 14 14 12 8 6 5 5 4 4 3 4 4 3 3 2 2 1 1 1 0 0 -1 3 9 13 14 15 15 14 14 14 13 12 11 10 10 9 9 10 14 16 17 17 17 14 13 12 11 13 12 14 14 14 13 12 12 11 11 10 10 10 10 10 9 9 8 10 9 8 9 10 10 8
11 12 12 12 13 13 14 14 15 15 15 14 14 13 9 7 6 5 7 4 4 4 4 3 3 3 2 1 1 1 0 0 4 11 15 16 17 17 17 17 16 15 15 13 13 12 10 9 10 14 15 16 16 16 17 17 16 14 12 13 14 14 13 13 12 12 12 12 11 11 11 10 10 10 10 10 10 10 10 10 9 9 8 8 9
13 12 13 13 14 14 15 15 16 16 16 15 18 13 10 10 11 9 7 6 6 5 5 3 3 2 2 1 1 1 0 1 9 14 19 21 19 18 18 18 18 17 16 14 13 12 10 9 7 9 11 12 10 13 14 15 16 16 17 18 17 14 13 12 12 12 12 12 12 11 10 9 9 10 9 8 9 9 9 9 9 8 8 9 9
13 13 14 14 15 16 16 17 17 18 18 19 17 15 12 12 11 11 9 8 7 6 5 4 2 1 1 1 1 0 0 6 13 16 19 21 22 20 20 19 19 16 15 15 13 12 10 8 6 5 5 5 5 6 10 13 13 14 15 16 16 17 17 15 13 12 12 11 10 10 9 9 8 8 7 6 6 6 7 7 8 8 8 9 9
14 15 15 16 15 16 17 20 21 21 20 17 16 14 13 12 12 11 10 9 7 6 4 3 2 2 1 1 0 0 0 7 12 16 19 21 22 21 19 19 18 17 15 14 12 10 7 6 5 5 4 10 10 6 4 3 9 11 13 14 14 15 15 16 16 14 13 12 12 11 9 8 8 7 7 7 9 7 7 7 8 9 10 10 10
16 17 18 18 18 17 19 22 21 20 18 16 13 13 13 12 11 10 9 8 8 7 7 5 5 2 1 -0 -0 -0 -0 5 12 17 20 21 22 21 19 18 18 16 15 12 9 7 6 5 5 5 4 4 4 3 3 3 3 5 6 7 7 10 15 16 17 17 16 12 11 11 9 8 7 7 8 10 9 10 10 11 11 12 13 13 14
19 19 20 19 19 20 20 20 20 19 16 15 13 13 11 11 10 9 8 8 9 8 6 7 6 5 4 3 0 0 -1 9 14 17 19 20 21 21 19 18 16 15 12 9 8 7 6 6 5 5 5 4 4 6 6 7 10 12 13 13 13 11 11 10 10 10 10 9 10 8 8 8 8 9 9 11 11 12 12 12 13 14 16 17 16
20 19 20 20 20 19 20 20 20 17 14 13 12 12 11 11 10 9 6 6 6 5 6 5 5 5 5 4 2 0 -1 9 13 16 18 19 21 18 17 15 13 13 11 11 10 8 7 6 6 5 5 5 10 15 15 12 14 15 15 15 15 15 15 17 19 19 16 13 13 12 13 13 17 15 15 15 16 18 19 20 20 19 17 15 13
20 20 21 20 19 19 19 19 19 16 14 13 12 12 12 9 8 6 6 7 7 6 6 5 4 4 4 3 2 0 3 6 11 15 17 19 19 15 14 14 14 13 11 11 10 9 9 8 7 6 7 7 13 17 19 19 15 16 17 17 17 17 17 16 20 22 23 23 23 25 24 24 23 25 25 25 23 22 20 18 16 15 13 11 10
20 22 20 22 19 17 18 19 18 15 14 14 12 11 9 8 7 5 6 5 5 6 4 3 3 2 3 2 2 2 2 5 11 14 16 17 17 15 14 13 12 12 12 11 11 10 10 14 14 10 9 9 16 18 20 19 17 17 17 16 16 16 16 16 15 16 20 22 22 21 22 23 22 23 24 25 23 21 16 14 14 13 12 11 10
21 21 20 19 17 16 17 17 17 15 13 13 11 11 9 7 6 4 3 4 4 3 1 2 2 2 2 1 4 4 4 5 9 12 15 16 16 15 14 13 12 12 12 12 11 10 9 12 15 15 14 15 20 21 21 19 17 18 17 16 16 16 17 17 17 17 18 18 17 16 19 19 17 15 16 21 21 20 16 15 15 12 10 10 10
20 20 18 16 16 16 16 16 16 14 13 12 9 8 6 3 4 3 3 2 1 0 -0 1 1 1 1 0 -0 1 0 1 3 11 14 16 18 15 14 13 12 12 12 11 11 12 12 12 14 17 19 19 20 21 21 22 17 17 17 17 17 17 17 19 20 20 19 19 19 18 17 16 17 16 17 17 16 18 16 14 14 14 13 12 11
18 17 14 14 14 13 12 14 13 12 11 8 7 4 3 4 3 3 2 1 -0 -1 0 -0 -0 -0 -0 -0 -1 0 -0 -0 2 10 13 16 17 17 14 13 13 12 12 12 13 13 14 13 11 16 18 19 20 21 21 22 22 19 19 18 19 19 21 18 18 19 17 17 17 17 16 15 16 16 14 14 14 13 14 16 14 13 14 13 12
15 14 15 14 12 11 10 10 9 7 6 5 4 3 2 4 3 1 -1 -0 0 -0 -0 -1 -2 -1 -1 -0 -1 -1 1 4 2 7 12 15 17 18 15 14 14 14 14 14 14 13 13 12 12 15 18 19 20 21 23 23 23 19 17 21 21 21 18 17 16 15 15 14 14 13 12 11 10 12 12 12 12 12 12 11 12 11 11 13 13
14 13 13 12 10 8 7 5 4 2 2 3 4 3 1 -0 -0 -1 -1 -1 -1 -1 -1 -1 -1 -2 -1 -2 -1 -1 -1 -1 5 6 11 15 16 17 18 17 19 17 15 14 14 14 14 14 13 17 19 20 22 23 23 23 20 16 20 20 20 21 18 13 13 12 11 10 9 8 8 9 9 9 10 11 11 12 10 10 11 11 13 13 12
12 12 10 9 7 5 4 3 1 0 0 0 -0 1 0 -1 -2 -3 -2 -2 -3 -1 -1 -1 -2 -1 -1 -1 -2 -4 -1 -2 4 9 9 13 15 17 18 18 18 16 15 15 15 14 13 13 15 19 21 21 21 21 20 19 15 18 18 18 18 17 11 9 8 7 7 7 6 7 7 9 9 10 10 11 10 12 9 10 10 10 10 11 11
11 10 9 7 4 2 1 -0 -1 -1 -1 -1 -1 -2 -1 -2 -3 -2 -2 -2 -2 -2 -2 -2 -3 -3 -4 -2 -4 -2 -1 -0 1 6 11 13 15 15 16 17 17 18 15 15 14 14 16 19 20 20 20 19 19 17 14 13 14 15 16 16 13 7 6 5 5 5 5 5 5 6 7 8 7 8 8 9 10 12 12 12 13 14 14 14 15
9 8 7 4 3 1 0 -1 -2 -2 -1 -2 -1 -2 -1 -3 -3 -2 -4 -4 -4 -4 -3 -4 -4 -3 -4 -3 -3 -2 1 2 4 6 9 10 12 14 15 16 17 17 17 15 17 18 19 18 18 17 16 13 8 7 5 6 12 13 12 10 5 4 4 4 4 4 4 4 5 5 6 7 7 7 7 8 10 10 11 11 11 11 13 12 12
8 7 5 3 1 -1 -0 -2 -4 -4 -4 -4 -4 -4 -4 -3 -3 -4 -4 -3 -4 -4 -5 -5 -5 -4 -4 -3 -2 0 2 4 6 7 8 9 10 12 13 14 15 16 14 14 15 13 12 13 13 14 11 10 8 9 8 6 2 2 1 2 3 2 2 2 2 2 3 2 3 4 5 6 7 9 8 9 9 9 11 11 11 11 12 12 12
9 7 5 2 -2 -2 -1 -3 -3 -4 -4 -4 -4 -4 -4 -4 -4 -4 -4 -3 -4 -4 -5 -5 -4 -4 -3 -2 -0 2 3 5 6 7 8 10 12 14 13 13 13 13 13 13 13 13 10 11 6 1 0 0 -0 -1 -1 -0 0 0 -0 -0 -0 2 3 6 6 3 2 3 2 3 4 4 4 5 6 7 7 9 11 11 11 11 12 13 12
8 7 3 -0 -1 -4 -2 -2 -3 -3 -4 -5 -4 -3 -4 -5 -5 -4 -3 -4 -4 -4 -4 -4 -3 -2 -2 -0 2 4 5 6 7 12 12 16 15 13 13 13 13 14 15 16 13 8 4 -1 -3 -3 -3 -3 -3 -3 -3 -3 -2 -2 -1 -1 -1 -0 -0 -0 -0 0 1 1 1 2 2 2 3 4 5 6 7 9 11 11 12 11 12 13 13
6 5 2 -1 -1 -3 -4 -4 -3 -4 -4 -5 -5 -6 -3 4 -1 -5 -5 2 7 9 8 -0 -0 1 3 4 5 6 7 8 14 17 17 17 17 17 17 17 17 15 15 15 9 1 -3 -4 -4 -4 -4 -4 -4 -4 -3 -3 -3 -3 -3 2 -1 -2 -1 -0 -0 0 1 1 2 2 2 3 3 4 4 5 6 8 10 12 11 12 11 11 11
4 2 -1 -2 -3 -4 -4 -5 -5 -5 -5 -6 -6 -6 -6 -2 10 12 11 9 11 13 15 16 17 17 11 11 13 17 17 18 18 17 15 16 17 17 17 16 16 15 14 9 0 -4 -5 -5 -5 -5 -5 -4 -4 -4 -3 -3 -4 -4 -3 -3 -2 -2 -1 -1 -0 1 1 1 2 2 3 3 3 4 4 5 6 6 7 9 10 10 11 11 11
3 2 -1 -2 -3 -5 -4 -4 -4 -5 -6 -5 -5 -7 -6 -6 -6 6 9 12 13 13 15 16 16 16 16 15 14 12 13 14 14 15 16 16 16 16 15 15 14 13 12 8 -3 -5 -5 -6 -5 -5 -5 -4 -4 -4 -4 -4 -4 -4 -4 -3 -3 -2 -1 -1 1 1 2 2 2 2 3 3 3 3 4 4 6 6 6 7 7 8 9 10 10
5 3 -0 -2 -4 -6 -5 -4 -5 -5 -5 -5 -6 -6 -7 -7 -7 -6 3 10 10 11 12 13 14 14 14 14 14 14 13 14 15 15 15 15 15 15 14 13 12 11 9 -1 -5 -6 -6 -6 -6 -5 -4 -4 -4 -4 -4 -4 -4 -4 -4 -3 -3 -2 -1 1 3 3 2 2 3 3 2 2 3 3 4 4 4 4 5 5 6 7 7 8 9
3 -0 -2 -3 -3 -4 -5 -4 -5 -5 -5 -6 -6 -7 -7 -7 -8 -7 -8 -7 -2 6 9 8 8 10 9 9 10 11 12 13 13 14 14 14 14 13 13 6 9 8 5 -4 -7 -7 -6 -6 -6 -5 -4 -5 -5 -5 -5 -5 -4 -4 -3 -3 -2 -1 0 2 2 1 2 3 2 2 2 2 3 3 3 3 4 4 4 5 5 5 6 7 8
-2 -6 -6 -5 -4 -4 -4 -3 -5 -5 -6 -6 -7 -7 -8 -8 -8 -9 -9 -8 -8 -7 -6 -3 5 6 3 5 8 10 12 12 13 13 13 14 12 12 9 -3 -7 -7 -7 -8 -7 -7 -7 -6 -6 -6 -5 -5 -5 -5 -5 -5 -4 -4 -3 -3 -2 -1 -0 1 1 2 3 2 1 2 2 3 3 3 3 3 3 3 3 4 4 5 6 7 8
-3 -3 -5 -6 -5 -4 -4 -4 -5 -5 -6 -7 -7 -7 -8 -7 -8 -8 -9 -9 -9 -9 -9 -8 -8 0 5 7 9 10 10 10 11 11 13 11 11 6 -5 -8 -8 -8 -8 -8 -8 -8 -7 -7 -7 -7 -6 -6 -6 -6 -5 -5 -4 -4 -3 -2 -2 -1 -1 0 1 2 2 1 2 3 4 3 3 3 3 3 3 3 3 4 4 5 7 7 8
-5 -4 -4 -4 -5 -4 -5 -6 -5 -5 -1 -6 -8 -8 -8 -8 -8 -9 -9 -10 -10 -10 -10 -10 -10 -9 -1 -2 -2 4 7 8 9 11 11 10 8 -5 -10 -10 -10 -9 -9 -9 -9 -9 -9 -8 -8 -8 -7 -7 -7 -6 -5 -5 -4 -3 0 -2 -1 -1 -1 0 2 3 1 1 2 3 3 3 3 3 3 2 3 3 3 4 4 6 7 7 9
-5 -5 -4 -4 -4 -4 -5 -6 -7 -6 -5 -5 -6 -8 -8 -9 -9 -10 -10 -10 -10 -11 -11 -11 -6 -9 -9 -10 -2 -4 -6 4 7 8 9 4 -6 -9 -10 -10 -10 -10 -10 -10 -10 -10 -10 -9 -9 -9 -8 -8 -7 -7 -6 -5 -4 -4 -3 -2 -2 -1 3 2 2 2 2 1 2 2 3 3 3 3 4 3 3 3 3 4 4 4 5 7 7
-7 -5 -4 -3 -1 -6 -6 -6 -7 -7 -7 -7 -7 -8 -9 -10 -10 -10 -10 -11 -11 -10 -11 -11 -12 -12 -11 -11 -11 -8 -6 -7 -5 -3 -3 -5 -7 -9 -11 -11 -11 -10 -10 -10 -10 -10 -10 -10 -10 -9 -9 -9 -8 -7 -7 -6 -5 -4 -3 -3 -2 -2 -1 -1 0 1 1 1 1 2 3 3 3 3 4 3 3 3 3 4 5 5 5 5 6
-7 -7 -5 -2 -3 -1 -6 -7 -8 -8 -9 -9 -9 -9 -10 -10 -10 -11 -11 -11 -12 -12 -12 -12 -12 -12 -12 -12 -12 -12 -10 -8 -4 -3 -3 -4 -7 -10 -11 -11 -11 -11 -11 -11 -11 -11 -11 -11 -11 -11 -10 -9 -9 -9 -8 -7 -6 -6 -5 -4 -3 -2 -2 -1 -0 0 1 1 1 2 2 3 4 4 4 3 3 4 4 4 5 5 5 6 6
-6 -6 -7 -2 -3 -3 -3 -6 -8 -8 -9 -10 -10 -11 -11 -11 -11 -11 -12 -12 -12 -12 -12 -12 -12 -12 -11 -9 1 1 -6 -5 -3 -2 -3 -6 -8 -11 -12 -12 -12 -11 -11 -11 -11 -11 -12 -12 -12 -11 -11 -10 -10 -9 -9 -8 -7 -6 -6 -5 -4 -2 -2 -1 -0 0 1 1 1 2 3 4 4 4 3 4 7 5 4 4 5 5 6 6 7
-7 -7 -7 -7 -5 -5 -6 -6 -7 -7 -8 -10 -10 -10 -11 -11 -11 -12 -12 -12 -12 -12 -12 -12 -12 -13 -8 3 4 6 2 1 -4 -6 -7 -9 -11 -12 -12 -12 -12 -12 -12 -12 -12 -12 -12 -12 -12 -12 -11 -11 -11 -10 -10 -10 -9 -9 -8 -7 -6 -4 -3 -2 -1 0 1 0 1 2 3 5 5 5 4 7 4 4 4 4 4 5 5 6 7
-9 -10 -9 -9 -9 -9 -9 -9 -8 -9 -9 -9 -10 -10 -10 -11 -12 -12 -12 -12 -12 -12 -13 -13 -13 -13 -12 -1 -2 0 -3 -5 -6 -9 -11 -12 -13 -13 -12 -12 -12 -12 -12 -12 -13 -13 -13 -13 -13 -13 -12 -12 -11 -11 -11 -11 -10 -10 -9 -8 -7 -6 -4 -3 -2 -1 -0 0 1 3 4 5 5 4 3 4 4 4 4 4 4 5 5 6 7
-12 -12 -12 -12 -12 -12 -11 -11 -11 -10 -10 -11 -12 -12 -12 -12 -12 -12 -13 -13 -13 -13 -13 -13 -13 -13 -13 -13 -7 -7 -8 -9 -11 -12 -13 -14 -14 -13 -13 -13 -13 -13 -13 -13 -13 -13 -13 -13 -13 -13 -12 -12 -12 -11 -11 -11 -11 -10 -9 -9 -7 -6 -5 -4 -3 -2 -1 -0 1 2 3 5 5 3 3 4 3 3 3 4 4 4 5 5 6
-14 -14 -14 -14 -14 -14 -13 -12 -12 -12 -12 -12 -12 -13 -13 -13 -13 -13 -13 -14 -14 -14 -13 -13 -13 -13 -13 -14 -14 -14 -14 -14 -13 -14 -14 -14 -14 -14 -14 -14 -14 -14 -14 -14 -14 -14 -14 -14 -14 -14 -13 -13 -12 -12 -12 -12 -11 -11 -11 -10 -9 -8 -8 -6 -4 -2 -0 1 0 1 3 5 4 3 2 3 3 3 3 3 4 5 5 5 6
-15 -15 -15 -14 -14 -13 -13 -13 -14 -13 -14 -13 -14 -14 -14 -14 -14 -14 -14 -14 -14 -14 -14 -14 -14 -14 -14 -14 -14 -14 -14 -14 -15 -15 -15 -15 -15 -15 -15 -15 -15 -15 -15 -15 -15 -14 -14 -14 -14 -14 -14 -13 -13 -13 -13 -12 -12 -11 -10 -9 -9 -8 -7 -6 -5 -3 -2 -1 -1 1 4 5 4 2 3 2 2 3 3 3 4 4 4 5 6
-16 -15 -14 -13 -13 -13 -13 -13 -14 -15 -15 -15 -15 -15 -15 -15 -15 -16 -15 -15 -15 -14 -14 -14 -14 -15 -15 -15 -15 -15 -15 -15 -15 -16 -16 -15 -15 -16 -16 -16 -16 -16 -16 -15 -15 -15 -15 -15 -15 -14 -14 -14 -14 -13 -13 -13 -12 -12 -11 -10 -9 -8 -7 -6 -6 -5 -4 -2 0 2 5 5 3 1 1 2 2 2 3 3 3 4 4 5 5
-15 -15 -15 -15 -15 -14 -14 -14 -15 -14 -15 -15 -16 -16 -16 -16 -16 -16 -16 -16 -16 -15 -15 -15 -15 -15 -15 -15 -15 -15 -16 -16 -16 -16 -16 -17 -16 -16 -16 -16 -17 -17 -17 -16 -16 -15 -15 -15 -15 -15 -15 -14 -14 -13 -13 -13 -13 -12 -11 -11 -10 -9 -8 -6 -7 -5 -3 -1 2 4 6 3 1 1 1 1 1 1 2 1 2 2 3 4 4
-15 -14 -14 -14 -15 -15 -15 -15 -15 -15 -15 -16 -16 -16 -16 -16 -16 -16 -16 -16 -16 -16 -16 -16 -16 -16 -17 -17 -17 -17 -17 -17 -17 -17 -17 -17 -17 -17 -17 -17 -17 -17 -17 -17 -16 -16 -16 -16 -15 -15 -15 -15 -14 -14 -14 -13 -13 -12 -12 -11 -10 -9 -7 -6 -5 -4 -1 1 3 6 4 1 0 0 1 1 1 1 1 2 2 2 2 2 3
-14 -15 -16 -16 -16 -16 -16 -16 -15 -15 -16 -16 -17 -17 -17 -17 -17 -17 -16 -16 -16 -16 -16 -16 -17 -17 -17 -17 -17 -17 -17 -18 -18 -17 -17 -17 -17 -17 -17 -17 -17 -17 -17 -17 -17 -16 -16 -16 -16 -16 -16 -16 -15 -14 -14 -14 -13 -13 -12 -12 -10 -8 -7 -5 -2 0 1 3 5 6 3 -0 -1 -0 -0 -0 0 1 1 1 1 1 1 1 1
-16 -16 -16 -16 -16 -16 -15 -15 -16 -16 -16 -17 -17 -17 -17 -17 -17 -16 -16 -17 -17 -17 -17 -17 -17 -17 -18 -18 -17 -17 -17 -17 -17 -17 -17 -17 -17 -17 -17 -17 -17 -17 -17 -17 -17 -17 -16 -16 -16 -16 -16 -15 -15 -15 -14 -14 -14 -14 -12 -10 -8 -7 -4 -1 0 2 4 5 6 6 2 -1 -2 -2 -1 -0 -0 0 1 1 0 -0 -0 -0 0